| time (UTC) | temp F | wind direction | speed MPH | gust MPH | rain 1hr in | rain 24hr in | rain mn in | humidity % | barometer mb |
| 20260509224204 | 57 | 181 | 4.0 | 7.0 | 0.00 | 0.01 | 0.01 | 80 | 1011.1 |
| 20260509223704 | 57 | 210 | 3.0 | 9.0 | 0.00 | 0.01 | 0.01 | 80 | 1011.1 |
| 20260509223204 | 57 | 194 | 4.0 | 10.0 | 0.00 | 0.01 | 0.01 | 79 | 1011.1 |
| 20260509222704 | 57 | 193 | 5.0 | 10.0 | 0.00 | 0.01 | 0.01 | 80 | 1011.1 |
| 20260509222204 | 57 | 199 | 6.0 | 10.0 | 0.00 | 0.01 | 0.01 | 79 | 1011.1 |
| 20260509221704 | 57 | 201 | 5.0 | 12.0 | 0.00 | 0.01 | 0.01 | 79 | 1011.1 |
| 20260509221204 | 57 | 199 | 6.0 | 14.0 | 0.00 | 0.01 | 0.01 | 79 | 1011.1 |
| 20260509220703 | 58 | 195 | 6.0 | 13.0 | 0.00 | 0.01 | 0.01 | 78 | 1011.1 |
| 20260509215702 | 58 | 191 | 7.0 | 12.0 | 0.00 | 0.01 | 0.01 | 78 | 1011.1 |
| 20260509215202 | 58 | 189 | 7.0 | 10.0 | 0.00 | 0.01 | 0.01 | 77 | 1011.1 |
| 20260509214703 | 58 | 194 | 9.0 | 15.0 | 0.00 | 0.01 | 0.01 | 77 | 1011.5 |
| 20260509214203 | 60 | 207 | 5.0 | 12.0 | 0.00 | 0.01 | 0.01 | 75 | 1011.1 |
| 20260509213703 | 59 | 229 | 7.0 | 15.0 | 0.00 | 0.01 | 0.01 | 75 | 1011.1 |
| 20260509213202 | 59 | 196 | 9.0 | 14.0 | 0.00 | 0.01 | 0.01 | 75 | 1011.1 |
| 20260509212702 | 59 | 211 | 8.0 | 20.0 | 0.00 | 0.01 | 0.01 | 74 | 1011.1 |
| 20260509212202 | 59 | 193 | 9.0 | 20.0 | 0.00 | 0.01 | 0.01 | 75 | 1011.1 |
| 20260509211703 | 60 | 189 | 6.0 | 16.0 | 0.00 | 0.01 | 0.01 | 75 | 1011.5 |
| 20260509211202 | 59 | 184 | 10.0 | 17.0 | 0.00 | 0.01 | 0.01 | 76 | 1011.3 |
| 20260509210703 | 59 | 186 | 6.0 | 14.0 | 0.00 | 0.01 | 0.01 | 78 | 1011.3 |
| 20260509210202 | 58 | 198 | 7.0 | 12.0 | 0.00 | 0.01 | 0.01 | 79 | 1011.5 |
| 20260509205203 | 56 | 182 | 4.0 | 8.0 | 0.00 | 0.01 | 0.01 | 84 | 1011.5 |
| 20260509204703 | 56 | 167 | 3.0 | 7.0 | 0.00 | 0.01 | 0.01 | 85 | 1011.8 |
| 20260509204202 | 55 | 197 | 4.0 | 7.0 | 0.00 | 0.01 | 0.01 | 86 | 1012.0 |
| 20260509203703 | 55 | 133 | 2.0 | 6.0 | 0.00 | 0.01 | 0.01 | 86 | 1012.0 |
| 20260509203203 | 55 | 151 | 3.0 | 6.0 | 0.00 | 0.01 | 0.01 | 87 | 1012.2 |
| 20260509202703 | 55 | 171 | 3.0 | 6.0 | 0.00 | 0.01 | 0.01 | 87 | 1012.2 |
| 20260509202203 | 54 | 189 | 4.0 | 8.0 | 0.00 | 0.01 | 0.01 | 88 | 1012.2 |
| 20260509201702 | 54 | 205 | 2.0 | 5.0 | 0.00 | 0.01 | 0.01 | 88 | 1012.2 |
| 20260509201202 | 54 | 202 | 4.0 | 7.0 | 0.00 | 0.01 | 0.01 | 88 | 1012.2 |
| 20260509200703 | 53 | 185 | 3.0 | 6.0 | 0.00 | 0.01 | 0.01 | 89 | 1012.2 |
| 20260509200203 | 53 | 183 | 3.0 | 5.0 | 0.00 | 0.01 | 0.01 | 88 | 1012.2 |
| 20260509195702 | 53 | 153 | 3.0 | 5.0 | 0.00 | 0.01 | 0.01 | 89 | 1012.3 |
| 20260509195203 | 53 | 174 | 3.0 | 8.0 | 0.00 | 0.01 | 0.01 | 89 | 1012.4 |
| 20260509194703 | 53 | 170 | 3.0 | 6.0 | 0.00 | 0.01 | 0.01 | 89 | 1012.3 |
| 20260509194203 | 53 | 183 | 3.0 | 6.0 | 0.00 | 0.01 | 0.01 | 89 | 1012.5 |
| 20260509193703 | 53 | 184 | 3.0 | 6.0 | 0.00 | 0.01 | 0.01 | 89 | 1012.5 |
| 20260509193203 | 53 | 163 | 3.0 | 7.0 | 0.00 | 0.01 | 0.01 | 89 | 1012.8 |
| 20260509192703 | 53 | 173 | 4.0 | 7.0 | 0.00 | 0.01 | 0.01 | 89 | 1012.8 |
| 20260509192203 | 53 | 175 | 4.0 | 12.0 | 0.00 | 0.01 | 0.01 | 90 | 1012.8 |
| 20260509191703 | 52 | 198 | 5.0 | 9.0 | 0.00 | 0.01 | 0.01 | 89 | 1012.8 |
| 20260509191203 | 53 | 174 | 4.0 | 7.0 | 0.00 | 0.01 | 0.01 | 89 | 1012.8 |
| 20260509190702 | 52 | 165 | 4.0 | 8.0 | 0.00 | 0.01 | 0.01 | 90 | 1012.8 |
| 20260509185703 | 51 | 199 | 2.0 | 6.0 | 0.00 | 0.01 | 0.01 | 91 | 1013.2 |
| 20260509185203 | 51 | 200 | 3.0 | 6.0 | 0.00 | 0.01 | 0.01 | 92 | 1013.2 |
| 20260509184703 | 50 | 175 | 4.0 | 8.0 | 0.00 | 0.01 | 0.01 | 92 | 1013.2 |
| 20260509184203 | 50 | 161 | 3.0 | 8.0 | 0.00 | 0.01 | 0.01 | 92 | 1013.3 |
| 20260509183703 | 50 | 173 | 4.0 | 9.0 | 0.00 | 0.01 | 0.01 | 92 | 1013.4 |
| 20260509182703 | 50 | 180 | 4.0 | 7.0 | 0.00 | 0.01 | 0.01 | 91 | 1013.3 |
| 20260509182203 | 51 | 186 | 2.0 | 7.0 | 0.00 | 0.01 | 0.01 | 92 | 1013.3 |
| 20260509181703 | 50 | 184 | 5.0 | 7.0 | 0.00 | 0.01 | 0.01 | 92 | 1013.3 |
| 20260509181203 | 50 | 189 | 3.0 | 9.0 | 0.00 | 0.01 | 0.01 | 92 | 1013.2 |
| 20260509180703 | 50 | 170 | 4.0 | 9.0 | 0.00 | 0.01 | 0.01 | 92 | 1013.2 |
| 20260509180203 | 50 | 167 | 2.0 | 8.0 | 0.00 | 0.01 | 0.01 | 92 | 1013.3 |
| 20260509175203 | 50 | 168 | 3.0 | 6.0 | 0.00 | 0.01 | 0.01 | 92 | 1013.5 |
| 20260509174203 | 49 | 172 | 5.0 | 10.0 | 0.00 | 0.01 | 0.01 | 93 | 1013.5 |
| 20260509173703 | 49 | 168 | 5.0 | 14.0 | 0.00 | 0.01 | 0.01 | 92 | 1013.5 |
| 20260509173203 | 49 | 188 | 5.0 | 14.0 | 0.00 | 0.01 | 0.01 | 93 | 1013.7 |
| 20260509172703 | 49 | 175 | 6.0 | 10.0 | 0.00 | 0.01 | 0.01 | 94 | 1013.4 |
| 20260509172203 | 48 | 190 | 4.0 | 8.0 | 0.00 | 0.01 | 0.01 | 95 | 1013.5 |
| 20260509171703 | 48 | 169 | 4.0 | 9.0 | 0.00 | 0.01 | 0.01 | 95 | 1013.7 |
| 20260509171203 | 48 | 181 | 5.0 | 8.0 | 0.00 | 0.01 | 0.01 | 96 | 1013.9 |
| 20260509170703 | 48 | 177 | 3.0 | 7.0 | 0.00 | 0.01 | 0.01 | 96 | 1013.9 |
| 20260509165203 | 47 | 170 | 4.0 | 10.0 | 0.00 | 0.01 | 0.01 | 95 | 1013.9 |
| 20260509164203 | 47 | 175 | 6.0 | 12.0 | 0.00 | 0.01 | 0.01 | 94 | 1014.2 |
| 20260509163703 | 48 | 159 | 3.0 | 6.0 | 0.00 | 0.01 | 0.01 | 95 | 1014.2 |
| 20260509163203 | 48 | 178 | 3.0 | 5.0 | 0.00 | 0.01 | 0.01 | 95 | 1014.2 |
| 20260509162203 | 47 | 196 | 2.0 | 8.0 | 0.00 | 0.01 | 0.01 | 94 | 1014.4 |
| 20260509161703 | 47 | 160 | 3.0 | 8.0 | 0.00 | 0.01 | 0.01 | 94 | 1014.5 |
| 20260509161203 | 47 | 179 | 3.0 | 7.0 | 0.00 | 0.01 | 0.01 | 94 | 1014.5 |
| 20260509160703 | 47 | 140 | 1.0 | 8.0 | 0.00 | 0.01 | 0.01 | 94 | 1014.3 |
| 20260509160204 | 47 | 165 | 3.0 | 8.0 | 0.00 | 0.01 | 0.01 | 95 | 1014.5 |
| 20260509155703 | 47 | 142 | 3.0 | 10.0 | 0.00 | 0.01 | 0.01 | 95 | 1014.5 |
| 20260509155203 | 47 | 141 | 4.0 | 9.0 | 0.00 | 0.01 | 0.01 | 95 | 1014.7 |
| 20260509154703 | 47 | 184 | 5.0 | 12.0 | 0.00 | 0.01 | 0.01 | 95 | 1014.7 |
| 20260509154203 | 47 | 186 | 5.0 | 9.0 | 0.00 | 0.01 | 0.01 | 94 | 1014.7 |
| 20260509153203 | 47 | 143 | 5.0 | 12.0 | 0.00 | 0.02 | 0.01 | 94 | 1015.1 |
| 20260509152704 | 47 | 177 | 5.0 | 7.0 | 0.00 | 0.03 | 0.01 | 94 | 1015.1 |
| 20260509152204 | 47 | 158 | 3.0 | 6.0 | 0.00 | 0.04 | 0.01 | 94 | 1015.2 |
| 20260509151203 | 47 | 178 | 5.0 | 10.0 | 0.01 | 0.04 | 0.01 | 93 | 1015.2 |
| 20260509150703 | 47 | 192 | 2.0 | 6.0 | 0.01 | 0.04 | 0.01 | 94 | 1015.2 |
| 20260509150203 | 47 | 90 | 5.0 | 10.0 | 0.01 | 0.04 | 0.01 | 94 | 1015.4 |
| 20260509145704 | 47 | 175 | 5.0 | 12.0 | 0.01 | 0.04 | 0.01 | 94 | 1015.2 |
| 20260509145204 | 47 | 174 | 3.0 | 8.0 | 0.01 | 0.04 | 0.01 | 95 | 1015.2 |
| 20260509144704 | 47 | 174 | 4.0 | 9.0 | 0.01 | 0.04 | 0.01 | 94 | 1015.2 |
| 20260509144204 | 47 | 151 | 3.0 | 5.0 | 0.01 | 0.04 | 0.01 | 94 | 1015.4 |
| 20260509143704 | 47 | 179 | 3.0 | 6.0 | 0.01 | 0.04 | 0.01 | 93 | 1015.6 |
| 20260509143203 | 47 | 186 | 2.0 | 6.0 | 0.01 | 0.04 | 0.01 | 94 | 1015.4 |
| 20260509142703 | 46 | 205 | 2.0 | 6.0 | 0.01 | 0.04 | 0.01 | 94 | 1015.4 |
| 20260509141704 | 46 | 130 | 3.0 | 6.0 | 0.01 | 0.04 | 0.01 | 95 | 1015.2 |
| 20260509141203 | 45 | 194 | 3.0 | 8.0 | 0.00 | 0.03 | 0.00 | 94 | 1015.4 |
| 20260509140703 | 45 | 165 | 4.0 | 12.0 | 0.00 | 0.03 | 0.00 | 94 | 1015.2 |
| 20260509140203 | 45 | 179 | 3.0 | 6.0 | 0.00 | 0.03 | 0.00 | 93 | 1015.2 |
| 20260509135703 | 45 | 168 | 2.0 | 6.0 | 0.00 | 0.03 | 0.00 | 93 | 1015.6 |
| 20260509135204 | 45 | 190 | 3.0 | 7.0 | 0.00 | 0.03 | 0.00 | 93 | 1015.6 |
| 20260509134703 | 45 | 185 | 2.0 | 7.0 | 0.00 | 0.03 | 0.00 | 93 | 1015.6 |
| 20260509134203 | 44 | 95 | 3.0 | 7.0 | 0.00 | 0.03 | 0.00 | 91 | 1015.6 |
| 20260509133704 | 44 | 168 | 2.0 | 6.0 | 0.00 | 0.03 | 0.00 | 91 | 1015.6 |
| 20260509133203 | 44 | 136 | 2.0 | 5.0 | 0.00 | 0.03 | 0.00 | 91 | 1015.8 |
| 20260509132703 | 44 | 156 | 2.0 | 7.0 | 0.00 | 0.03 | 0.00 | 90 | 1015.6 |
| 20260509132203 | 44 | 187 | 5.0 | 8.0 | 0.00 | 0.03 | 0.00 | 89 | 1015.6 |
| 20260509131704 | 44 | 96 | 3.0 | 8.0 | 0.00 | 0.03 | 0.00 | 88 | 1015.6 |
| 20260509131203 | 44 | 188 | 6.0 | 8.0 | 0.00 | 0.03 | 0.00 | 86 | 1015.6 |
| 20260509130202 | 44 | 181 | 2.0 | 9.0 | 0.00 | 0.03 | 0.00 | 84 | 1015.8 |
| 20260509125702 | 44 | 161 | 3.0 | 10.0 | 0.00 | 0.03 | 0.00 | 83 | 1015.6 |
| 20260509125203 | 44 | 196 | 4.0 | 8.0 | 0.00 | 0.03 | 0.00 | 82 | 1015.6 |
| 20260509124702 | 44 | 187 | 4.0 | 9.0 | 0.00 | 0.03 | 0.00 | 81 | 1015.6 |
| 20260509124202 | 44 | 203 | 2.0 | 6.0 | 0.00 | 0.03 | 0.00 | 81 | 1015.6 |
| 20260509123702 | 44 | 199 | 2.0 | 6.0 | 0.00 | 0.03 | 0.00 | 81 | 1015.6 |
| 20260509123202 | 44 | 192 | 3.0 | 7.0 | 0.00 | 0.03 | 0.00 | 80 | 1015.6 |
| 20260509122702 | 44 | 185 | 5.0 | 8.0 | 0.00 | 0.03 | 0.00 | 79 | 1015.6 |
| 20260509121203 | 44 | 166 | 5.0 | 10.0 | 0.00 | 0.03 | 0.00 | 77 | 1015.9 |
| 20260509120703 | 44 | 165 | 5.0 | 9.0 | 0.00 | 0.03 | 0.00 | 77 | 1016.0 |
| 20260509120202 | 44 | 166 | 4.0 | 10.0 | 0.00 | 0.03 | 0.00 | 77 | 1016.0 |
| 20260509115703 | 44 | 169 | 5.0 | 10.0 | 0.00 | 0.03 | 0.00 | 77 | 1016.2 |
| 20260509115202 | 44 | 180 | 3.0 | 9.0 | 0.00 | 0.03 | 0.00 | 76 | 1016.2 |
| 20260509114702 | 44 | 168 | 7.0 | 12.0 | 0.00 | 0.03 | 0.00 | 75 | 1016.1 |
| 20260509114202 | 44 | 185 | 3.0 | 9.0 | 0.00 | 0.03 | 0.00 | 76 | 1015.9 |
| 20260509113703 | 44 | 193 | 3.0 | 9.0 | 0.00 | 0.03 | 0.00 | 76 | 1016.0 |
| 20260509113203 | 44 | 171 | 4.0 | 8.0 | 0.00 | 0.03 | 0.00 | 74 | 1015.7 |
| 20260509112203 | 44 | 184 | 5.0 | 8.0 | 0.00 | 0.03 | 0.00 | 75 | 1015.9 |
| 20260509111703 | 44 | 173 | 4.0 | 10.0 | 0.00 | 0.03 | 0.00 | 74 | 1016.1 |
| 20260509111203 | 43 | 156 | 5.0 | 9.0 | 0.00 | 0.03 | 0.00 | 75 | 1016.0 |
| 20260509110703 | 43 | 163 | 5.0 | 10.0 | 0.00 | 0.03 | 0.00 | 75 | 1016.0 |
| 20260509110202 | 43 | 192 | 5.0 | 10.0 | 0.00 | 0.03 | 0.00 | 75 | 1015.8 |
| 20260509105702 | 43 | 193 | 3.0 | 10.0 | 0.00 | 0.03 | 0.03 | 76 | 1015.9 |
| 20260509104203 | 42 | 167 | 3.0 | 6.0 | 0.00 | 0.03 | 0.03 | 77 | 1015.9 |
| 20260509103702 | 42 | 205 | 3.0 | 9.0 | 0.00 | 0.03 | 0.03 | 77 | 1016.0 |
| 20260509103203 | 42 | 192 | 4.0 | 7.0 | 0.00 | 0.03 | 0.03 | 76 | 1015.9 |
| 20260509102703 | 42 | 193 | 4.0 | 8.0 | 0.00 | 0.03 | 0.03 | 76 | 1015.9 |
| 20260509102203 | 41 | 184 | 3.0 | 7.0 | 0.00 | 0.03 | 0.03 | 76 | 1015.9 |
| 20260509101703 | 42 | 146 | 4.0 | 8.0 | 0.00 | 0.03 | 0.03 | 76 | 1015.9 |
| 20260509101202 | 42 | 177 | 5.0 | 10.0 | 0.00 | 0.03 | 0.03 | 75 | 1015.9 |
| 20260509100703 | 42 | 180 | 6.0 | 12.0 | 0.00 | 0.03 | 0.03 | 75 | 1015.9 |
| 20260509100203 | 42 | 196 | 5.0 | 9.0 | 0.00 | 0.03 | 0.03 | 75 | 1015.9 |
| 20260509095702 | 42 | 189 | 5.0 | 10.0 | 0.00 | 0.03 | 0.03 | 75 | 1015.6 |
| 20260509095203 | 42 | 190 | 3.0 | 12.0 | 0.00 | 0.03 | 0.03 | 76 | 1015.6 |
| 20260509094703 | 42 | 182 | 5.0 | 12.0 | 0.00 | 0.03 | 0.03 | 76 | 1015.6 |
| 20260509094203 | 41 | 175 | 4.0 | 13.0 | 0.00 | 0.03 | 0.03 | 76 | 1015.6 |
| 20260509093703 | 41 | 179 | 6.0 | 10.0 | 0.00 | 0.03 | 0.03 | 75 | 1015.6 |
| 20260509093203 | 41 | 196 | 3.0 | 10.0 | 0.00 | 0.03 | 0.03 | 75 | 1015.6 |
| 20260509091703 | 41 | 179 | 2.0 | 7.0 | 0.00 | 0.03 | 0.03 | 77 | 1015.9 |
| 20260509091203 | 41 | 170 | 4.0 | 6.0 | 0.00 | 0.03 | 0.03 | 76 | 1015.9 |
| 20260509090703 | 41 | 204 | 4.0 | 7.0 | 0.00 | 0.03 | 0.03 | 75 | 1016.2 |
| 20260509090203 | 41 | 183 | 5.0 | 8.0 | 0.00 | 0.03 | 0.03 | 75 | 1016.2 |
| 20260509085203 | 40 | 197 | 2.0 | 6.0 | 0.00 | 0.03 | 0.03 | 78 | 1016.1 |
| 20260509084703 | 40 | 199 | 3.0 | 6.0 | 0.00 | 0.03 | 0.03 | 78 | 1016.1 |
| 20260509084203 | 40 | 200 | 4.0 | 7.0 | 0.00 | 0.03 | 0.03 | 79 | 1016.2 |
| 20260509083703 | 40 | 189 | 4.0 | 7.0 | 0.00 | 0.03 | 0.03 | 79 | 1016.2 |
| 20260509083203 | 40 | 188 | 5.0 | 7.0 | 0.00 | 0.03 | 0.03 | 81 | 1016.2 |
| 20260509082703 | 39 | 203 | 3.0 | 6.0 | 0.00 | 0.03 | 0.03 | 84 | 1015.9 |
| 20260509082203 | 38 | 200 | 3.0 | 5.0 | 0.00 | 0.03 | 0.03 | 85 | 1016.2 |
| 20260509081703 | 39 | 201 | 2.0 | 6.0 | 0.00 | 0.03 | 0.03 | 85 | 1016.2 |
| 20260509081204 | 39 | 198 | 2.0 | 5.0 | 0.00 | 0.03 | 0.03 | 84 | 1016.2 |
| 20260509080203 | 39 | 199 | 3.0 | 5.0 | 0.00 | 0.03 | 0.03 | 83 | 1016.2 |
| 20260509075203 | 39 | 196 | 3.0 | 6.0 | 0.00 | 0.03 | 0.03 | 83 | 1016.2 |
| 20260509074703 | 39 | 200 | 3.0 | 5.0 | 0.00 | 0.03 | 0.03 | 84 | 1016.2 |
| 20260509074203 | 39 | 175 | 2.0 | 5.0 | 0.00 | 0.04 | 0.03 | 84 | 1016.2 |
| 20260509073703 | 39 | 197 | 3.0 | 7.0 | 0.00 | 0.05 | 0.03 | 83 | 1016.2 |
| 20260509073203 | 39 | 200 | 2.0 | 6.0 | 0.00 | 0.06 | 0.03 | 84 | 1016.2 |
| 20260509072703 | 39 | 199 | 3.0 | 6.0 | 0.00 | 0.06 | 0.03 | 84 | 1015.9 |
| 20260509072203 | 39 | 203 | 2.0 | 6.0 | 0.00 | 0.07 | 0.03 | 83 | 1015.9 |
| 20260509071203 | 38 | 212 | 2.0 | 3.0 | 0.00 | 0.07 | 0.03 | 87 | 1016.1 |
| 20260509070704 | 37 | 199 | 2.0 | 3.0 | 0.00 | 0.07 | 0.03 | 89 | 1016.2 |
| 20260509070203 | 36 | 181 | 2.0 | 3.0 | 0.00 | 0.07 | 0.03 | 95 | 1016.0 |
| 20260509065703 | 36 | 181 | 1.0 | 3.0 | 0.00 | 0.07 | 0.03 | 96 | 1016.2 |
| 20260509065204 | 36 | 214 | 1.0 | 3.0 | 0.00 | 0.07 | 0.03 | 97 | 1016.2 |
| 20260509064703 | 36 | 187 | 2.0 | 3.0 | 0.00 | 0.07 | 0.03 | 97 | 1016.2 |
| 20260509064204 | 36 | 219 | 1.0 | 2.0 | 0.00 | 0.07 | 0.03 | 96 | 1016.4 |
| 20260509063703 | 37 | 215 | 2.0 | 3.0 | 0.00 | 0.07 | 0.03 | 95 | 1016.6 |
| 20260509063204 | 36 | 210 | 2.0 | 3.0 | 0.00 | 0.07 | 0.03 | 98 | 1016.4 |
| 20260509062703 | 35 | 217 | 1.0 | 2.0 | 0.00 | 0.07 | 0.03 | 99 | 1016.2 |
| 20260509061704 | 36 | 215 | 1.0 | 2.0 | 0.00 | 0.07 | 0.03 | 99 | 1016.6 |
| 20260509060704 | 36 | 206 | 2.0 | 5.0 | 0.00 | 0.07 | 0.03 | 99 | 1016.6 |
| 20260509060204 | 36 | 228 | 1.0 | 2.0 | 0.00 | 0.07 | 0.03 | 99 | 1016.6 |
| 20260509055703 | 35 | 188 | 0.0 | 1.0 | 0.00 | 0.07 | 0.03 | 99 | 1016.6 |
| 20260509055203 | 36 | 194 | 0.0 | 1.0 | 0.00 | 0.07 | 0.03 | 99 | 1016.8 |
| 20260509054703 | 36 | 200 | 1.0 | 2.0 | 0.00 | 0.07 | 0.03 | 99 | 1016.9 |
| 20260509054204 | 36 | 213 | 1.0 | 2.0 | 0.00 | 0.07 | 0.03 | 99 | 1016.9 |
| 20260509053703 | 36 | 224 | 0.0 | 2.0 | 0.00 | 0.07 | 0.03 | 99 | 1017.0 |
| 20260509053203 | 36 | 199 | 1.0 | 3.0 | 0.00 | 0.07 | 0.03 | 99 | 1016.9 |
| 20260509052704 | 36 | 217 | 2.0 | 2.0 | 0.00 | 0.07 | 0.03 | 99 | 1016.9 |
| 20260509052203 | 36 | 83 | 0.0 | 1.0 | 0.00 | 0.07 | 0.03 | 99 | 1017.0 |
| 20260509051704 | 36 | 107 | 0.0 | 1.0 | 0.00 | 0.07 | 0.03 | 99 | 1017.0 |
| 20260509051203 | 36 | 232 | 0.0 | 2.0 | 0.00 | 0.07 | 0.03 | 99 | 1017.2 |
| 20260509050703 | 36 | 210 | 0.0 | 1.0 | 0.00 | 0.07 | 0.03 | 99 | 1017.1 |
| 20260509050204 | 36 | 309 | 0.0 | 1.0 | 0.00 | 0.07 | 0.03 | 99 | 1017.2 |
| 20260509045703 | 36 | 279 | 0.0 | 2.0 | 0.00 | 0.07 | 0.03 | 99 | 1016.9 |
| 20260509045204 | 36 | 260 | 1.0 | 2.0 | 0.00 | 0.07 | 0.03 | 99 | 1017.2 |
| 20260509044204 | 36 | 188 | 2.0 | 2.0 | 0.00 | 0.07 | 0.03 | 99 | 1017.2 |
| 20260509043203 | 36 | 217 | 1.0 | 2.0 | 0.00 | 0.07 | 0.03 | 98 | 1017.2 |
| 20260509042704 | 36 | 218 | 1.0 | 1.0 | 0.00 | 0.07 | 0.03 | 98 | 1017.1 |
| 20260509041204 | 36 | 176 | 1.0 | 2.0 | 0.00 | 0.07 | 0.03 | 97 | 1017.2 |
| 20260509040704 | 36 | 191 | 1.0 | 2.0 | 0.00 | 0.07 | 0.03 | 97 | 1017.0 |
| 20260509040203 | 36 | 199 | 1.0 | 2.0 | 0.00 | 0.07 | 0.03 | 97 | 1017.0 |
| 20260509035703 | 36 | 199 | 2.0 | 2.0 | 0.00 | 0.07 | 0.03 | 97 | 1017.2 |
| 20260509035203 | 36 | 201 | 1.0 | 2.0 | 0.00 | 0.07 | 0.03 | 97 | 1017.2 |
| 20260509034702 | 36 | 221 | 1.0 | 2.0 | 0.00 | 0.07 | 0.03 | 97 | 1016.9 |
| 20260509033703 | 36 | 191 | 2.0 | 3.0 | 0.00 | 0.07 | 0.03 | 96 | 1016.9 |
| 20260509033202 | 37 | 217 | 1.0 | 3.0 | 0.00 | 0.07 | 0.03 | 96 | 1016.9 |
| 20260509032202 | 37 | 193 | 3.0 | 5.0 | 0.00 | 0.07 | 0.03 | 96 | 1016.9 |
| 20260509031203 | 37 | 209 | 2.0 | 2.0 | 0.00 | 0.07 | 0.03 | 96 | 1016.9 |
| 20260509030702 | 37 | 203 | 2.0 | 3.0 | 0.00 | 0.07 | 0.03 | 96 | 1017.1 |
| 20260509030203 | 37 | 211 | 1.0 | 3.0 | 0.00 | 0.07 | 0.03 | 96 | 1017.1 |
| 20260509025703 | 37 | 197 | 2.0 | 3.0 | 0.00 | 0.07 | 0.03 | 96 | 1017.0 |
| 20260509025203 | 37 | 190 | 3.0 | 5.0 | 0.00 | 0.07 | 0.03 | 96 | 1017.1 |
| 20260509024703 | 37 | 191 | 2.0 | 3.0 | 0.00 | 0.07 | 0.03 | 96 | 1016.9 |
| 20260509024202 | 37 | 191 | 2.0 | 3.0 | 0.00 | 0.07 | 0.03 | 95 | 1017.0 |
| 20260509023702 | 37 | 190 | 2.0 | 3.0 | 0.00 | 0.07 | 0.03 | 95 | 1017.0 |
| 20260509023202 | 37 | 191 | 1.0 | 2.0 | 0.00 | 0.07 | 0.03 | 94 | 1017.2 |
| 20260509022703 | 38 | 190 | 2.0 | 3.0 | 0.00 | 0.07 | 0.03 | 94 | 1017.2 |
| 20260509022203 | 38 | 192 | 2.0 | 3.0 | 0.00 | 0.07 | 0.03 | 93 | 1016.9 |
| 20260509021703 | 38 | 187 | 2.0 | 3.0 | 0.00 | 0.07 | 0.03 | 93 | 1016.9 |
| 20260509020703 | 38 | 212 | 2.0 | 3.0 | 0.00 | 0.07 | 0.03 | 91 | 1017.2 |
| 20260509015702 | 38 | 194 | 2.0 | 3.0 | 0.00 | 0.07 | 0.03 | 92 | 1016.9 |
| 20260509015203 | 39 | 190 | 2.0 | 3.0 | 0.00 | 0.07 | 0.03 | 92 | 1016.9 |
| 20260509014202 | 39 | 191 | 2.0 | 2.0 | 0.00 | 0.07 | 0.03 | 91 | 1016.8 |
| 20260509013703 | 39 | 196 | 1.0 | 3.0 | 0.00 | 0.07 | 0.03 | 90 | 1016.6 |
| 20260509013203 | 39 | 198 | 2.0 | 3.0 | 0.00 | 0.07 | 0.03 | 89 | 1016.4 |
| 20260509012703 | 40 | 193 | 2.0 | 3.0 | 0.00 | 0.07 | 0.03 | 89 | 1016.6 |
| 20260509012203 | 40 | 199 | 2.0 | 2.0 | 0.00 | 0.07 | 0.03 | 88 | 1016.2 |
| 20260509011702 | 40 | 200 | 1.0 | 3.0 | 0.00 | 0.07 | 0.03 | 87 | 1016.2 |
| 20260509011202 | 40 | 195 | 2.0 | 3.0 | 0.00 | 0.07 | 0.03 | 86 | 1016.2 |
| 20260509010703 | 41 | 192 | 2.0 | 3.0 | 0.00 | 0.07 | 0.03 | 85 | 1016.0 |
| 20260509005202 | 42 | 207 | 2.0 | 2.0 | 0.00 | 0.07 | 0.03 | 82 | 1016.1 |
| 20260509004703 | 42 | 218 | 2.0 | 3.0 | 0.00 | 0.07 | 0.03 | 80 | 1015.9 |
| 20260509004203 | 43 | 198 | 2.0 | 3.0 | 0.00 | 0.07 | 0.03 | 80 | 1015.7 |
| 20260509003703 | 43 | 202 | 1.0 | 2.0 | 0.00 | 0.07 | 0.03 | 79 | 1015.7 |
| 20260509002704 | 44 | 215 | 2.0 | 3.0 | 0.00 | 0.07 | 0.03 | 76 | 1015.9 |
| 20260509002203 | 45 | 196 | 2.0 | 3.0 | 0.00 | 0.07 | 0.03 | 74 | 1015.9 |
| 20260509001203 | 46 | 220 | 1.0 | 2.0 | 0.00 | 0.07 | 0.03 | 69 | 1015.9 |
| 20260509000703 | 47 | 226 | 1.0 | 2.0 | 0.00 | 0.07 | 0.03 | 63 | 1015.7 |
| 20260509000204 | 48 | 218 | 1.0 | 2.0 | 0.00 | 0.07 | 0.03 | 62 | 1015.6 |
| 20260508235703 | 49 | 222 | 1.0 | 2.0 | 0.00 | 0.07 | 0.03 | 57 | 1015.6 |
| 20260508234703 | 50 | 233 | 1.0 | 3.0 | 0.00 | 0.07 | 0.03 | 55 | 1015.6 |
| 20260508234203 | 51 | 276 | 1.0 | 3.0 | 0.00 | 0.07 | 0.03 | 54 | 1015.6 |
| 20260508233703 | 52 | 268 | 1.0 | 3.0 | 0.00 | 0.07 | 0.03 | 54 | 1015.6 |
| 20260508233203 | 53 | 302 | 1.0 | 2.0 | 0.00 | 0.07 | 0.03 | 49 | 1015.6 |
| 20260508232703 | 53 | 318 | 1.0 | 2.0 | 0.00 | 0.07 | 0.03 | 50 | 1015.6 |
| 20260508232203 | 54 | 303 | 2.0 | 3.0 | 0.00 | 0.07 | 0.03 | 48 | 1015.6 |
| 20260508231703 | 54 | 296 | 1.0 | 3.0 | 0.00 | 0.07 | 0.03 | 47 | 1015.6 |
| 20260508231203 | 53 | 3 | 1.0 | 5.0 | 0.00 | 0.07 | 0.03 | 47 | 1015.6 |
| 20260508230703 | 54 | 326 | 2.0 | 5.0 | 0.00 | 0.07 | 0.03 | 47 | 1015.6 |
| 20260508225703 | 53 | 314 | 3.0 | 8.0 | 0.00 | 0.07 | 0.03 | 46 | 1015.6 |
| 20260508225203 | 53 | 352 | 4.0 | 8.0 | 0.00 | 0.07 | 0.03 | 47 | 1015.6 |
| 20260508224703 | 54 | 344 | 2.0 | 6.0 | 0.00 | 0.07 | 0.03 | 47 | 1015.6 |